[Iaude] MPEC K133: 2024 KA1 [a=1.28,e=0.31,i=4.4,H=25.3]

mpec at cfa.harvard.edu mpec at cfa.harvard.edu
Thu May 30 06:30:23 EDT 2024


M.P.E.C. 2024-K133                                 Issued 2024 May 30, 10:29 UT

     The Minor Planet Electronic Circulars contain information on unusual
         minor planets, routine data on comets and natural satellites,
         and occasional editorial announcements.  They are published
    on behalf of Division F of the International Astronomical Union by the
          Minor Planet Center, Smithsonian Astrophysical Observatory,
                          Cambridge, MA 02138, U.S.A.
			  
             Prepared using the Tamkin Foundation Computer Network

                              MPC at CFA.HARVARD.EDU
            URL https://www.minorplanetcenter.net/    ISSN 1523-6714

                                    2024 KA1                                    


Observations:
     K24K01A  C2024 05 01.44707115 58 56.649-09 06 48.38         22.97GVEK133F51
     K24K01A  C2024 05 01.45831115 58 56.502-09 06 48.87         22.87GVEK133F51
     K24K01A  C2024 05 01.46956215 58 56.379-09 06 49.52         23.86GVEK133F51
     K24K01A  C2024 05 01.48080215 58 56.211-09 06 50.02         22.94GVEK133F51
     K24K01A  C2024 05 06.52355815 58 42.122-09 13 08.14         21.95GVEK133F51
     K24K01A  C2024 05 06.53471815 58 41.800-09 13 09.28         22.61GVEK133F51
     K24K01A  C2024 05 06.54587915 58 41.454-09 13 10.65         22.42GVEK133F51
     K24K01A  C2024 05 06.55705115 58 41.146-09 13 12.09         22.54GVEK133F51
     K24K01A  C2024 05 07.53989015 58 29.907-09 15 36.33         22.04GVEK133F51
     K24K01A  C2024 05 07.55123015 58 29.541-09 15 37.81         22.24GVEK133F51
     K24K01A  C2024 05 07.55442115 58 29.444-09 15 38.29         22.14GVEK133F51
     K24K01A  C2024 05 07.56569715 58 29.072-09 15 39.69         22.45GVEK133F51
     K24K01A  C2024 05 07.56634815 58 29.046-09 15 39.87         22.11GVEK133F51
     K24K01A  C2024 05 09.46700815 57 59.783-09 21 46.78         21.96GVEK133F51
     K24K01A  C2024 05 09.47978315 57 59.233-09 21 49.64         21.69GVEK133F51
     K24K01A  C2024 05 09.50529515 57 58.154-09 21 55.57         21.88GVEK133F51
     K24K01A* C2024 05 29.39745815 27 37.901-16 35 29.67         19.48wXEK133F51
     K24K01A  C2024 05 29.40886315 27 33.655-16 36 19.67         19.64wXEK133F51
     K24K01A  C2024 05 29.42025515 27 29.405-16 37 09.51         19.44wXEK133F51
     K24K01A  C2024 05 29.43163815 27 25.148-16 37 59.28         19.51wXEK133F51
     K24K01A  C2024 05 29.48922415 27 03.825-16 42 08.47         19.26GVEK133F51
     K24K01A  C2024 05 29.49004315 27 03.534-16 42 11.99         19.15GVEK133F51
     K24K01A KB2024 05 29.67099 15 26 16.16 -16 56 32.6                VEK133O46
     K24K01A KB2024 05 29.67656 15 26 13.99 -16 56 58.3          19.4 GVEK133O46
     K24K01A KB2024 05 29.68297 15 26 11.53 -16 57 28.8                VEK133O46
     K24K01A KB2024 05 29.69099 15 26 08.37 -16 58 05.9                VEK133O46
     K24K01A KB2024 05 29.91756615 24 56.623-17 16 33.96         19.6 GXEK133L34
     K24K01A KC2024 05 29.94636415 24 45.32 -17 19 08.8          19.5 VdEK133L01
     K24K01A KC2024 05 29.94888615 24 44.36 -17 19 21.3          19.6 VdEK133L01
     K24K01A KC2024 05 29.95141315 24 43.34 -17 19 33.0          19.5 VdEK133L01
     K24K01A KC2024 05 30.20383415 23 18.94 -17 40 50.3          19.1 GVEK133H21
     K24K01A KC2024 05 30.20668215 23 17.76 -17 41 04.8          19.4 GVEK133H21
     K24K01A KC2024 05 30.20953015 23 16.57 -17 41 19.9          19.1 GVEK133H21
     K24K01A KC2024 05 30.21237215 23 15.37 -17 41 34.9          19.2 GVEK133H21
     K24K01A  C2024 05 30.33720615 22 25.375-17 52 18.61         19.1 GVEK133H01
     K24K01A  C2024 05 30.34074515 22 23.845-17 52 37.17         19.0 GVEK133H01
     K24K01A  C2024 05 30.34400415 22 22.450-17 52 54.06         18.8 GVEK133H01
     K24K01A  C2024 05 30.34776715 22 20.839-17 53 13.60         19.0 GVEK133H01

Observer details:
F51 Pan-STARRS 1, Haleakala.  Observers J. Herman, T. Lowe, P. Minguez, A.
    Schultz, I. Smith.  Measurers K. Chambers, T. de Boer, J. Fairlamb, H.
    Gao, M. Huber, C.-C. Lin, E. Magnier, Y. Ramanjooloo, R. Wainscoat, R.
    Weryk.  1.8-m Ritchey-Chretien + CCD.
H01 Magdalena Ridge Observatory, Socorro.  Observers W. H. Ryan, E. V. Ryan.
    Measurer W. H. Ryan.  2.4-m f/8.9 Ritchey-Chretien + CCD.
H21 Astronomical Research Observatory, Westfield.  Observer R. Holmes.
    Measurers T. Linder, R. Holmes, L. Horn.  0.81-m f/4.0 astrograph + CCD.
L01 Visnjan Observatory, Tican.  Observer K. Korlevic.  1.0-m f/2.9 reflector
    + CCD.
L34 Galhassin Robotic Telescope, Isnello.  Observer A. Nastasi.  0.40-m f/3.8
    400mm Reflector + CMO.
O46 Daocheng Glacier Observatory.  Observer Z. Wang.  0.25-m f/8 reflector +
    CMO.

Orbital elements:
2024 KA1                                                 Earth MOID = 0.0104 AU
Epoch 2024 Mar. 31.0 TT = JDT 2460400.5                 Veres                   
M 278.16499              (2000.0)            P               Q                  
n   0.68178029     Peri.  251.09786     +0.76268737     +0.64277928             
a   1.2785167      Node    68.83582     -0.56069171     +0.71237612             
e   0.3087216      Incl.    4.41040     -0.32238608     +0.28170029             
P   1.45           H   25.37          G   0.15           U   7                  
Residuals in seconds of arc
240501 F51  0.0   0.3+    240509 F51  0.1-  0.3+    240529 L34  0.2+  0.3+
240501 F51  0.1-  0.2+    240509 F51  0.1-  0.3+    240529 L01  0.7-  0.2-
240501 F51  0.2+  0.1-    240509 F51  0.1+  0.1-    240529 L01  0.2-  0.3-
240501 F51  0.1-  0.2-    240529 F51  0.1-  0.1-    240529 L01  0.5-  0.4+
240506 F51  0.0   0.1-    240529 F51  0.0   0.0     240530 H21  0.3-  0.1-
240506 F51  0.1+  0.0     240529 F51  0.1+  0.1+    240530 H21  0.0   0.3+
240506 F51  0.1-  0.1-    240529 F51  0.0   0.0     240530 H21  0.2+  0.0
240506 F51  0.1+  0.3-    240529 F51  0.0   0.0     240530 H21  0.3+  0.2-
240507 F51  0.0   0.2-    240529 F51  0.1+  0.1+    240530 H01  0.0   0.0
240507 F51  0.1+  0.1-    240529 O46  0.1-  0.2-    240530 H01  0.1-  0.1-
240507 F51  0.2+  0.2-    240529 O46  0.3-  0.2+    240530 H01  0.1-  0.1-
240507 F51  0.0   0.1-    240529 O46  0.2+  0.3-    240530 H01  0.0   0.0
240507 F51  0.1-  0.2-    240529 O46  0.3-  0.0

Ephemeris:
2024 KA1                 a,e,i = 1.28, 0.31, 4                   q = 0.8838
Date    TT    R. A. (2000) Decl.     Delta      r    Elong.  Phase     V
2024 04 30    15 58 46.6 -09 06 03   0.2073  1.2014   157.5    18.7    23.3
...
2024 05 15    15 55 14.0 -09 53 43   0.1186  1.1274   168.9    10.0    21.6
...
2024 05 23    15 46 15.7 -11 55 10   0.07684 1.0884   170.8     8.6    20.6
...
2024 05 29    15 29 30.5 -16 05 30   0.04750 1.0597   166.0    13.4    19.7
2024 05 30    15 24 29.7 -17 20 31   0.04278 1.0550   164.4    15.0    19.5
2024 05 31    15 18 11.7 -18 53 29   0.03814 1.0503   162.4    17.0    19.3
...
2024 06 06    12 39 01.6 -44 13 28   0.01438 1.0228   123.6    55.7    18.2
...
2024 06 14    05 06 38.2 -11 34 37   0.03380 0.9883    35.3   143.6    25.3
...
2024 06 29    04 30 32.7 +01 04 25   0.1068  0.9334    36.9   139.1    27.1

M. P. C. Staff               (C) Copyright 2024 MPC           M.P.E.C. 2024-K133





More information about the Iaude mailing list